Retour au catalogue

STARLINK-11457

ActifCommunicationsVLEO
NORAD 62919·PAYLOAD·🇺🇸 United States

Lancé Feb 8, 2025 depuis Cape Canaveral Space Force Station

Loading…

Prochains Passages (prochaines 24 heures)

TLE

FraisSource: CelesTrak SupGP

Époque: Sep 15, 2026, 03:18 UTC

1 62919C 25027N   26258.13798611  .00042368  00000+0  32889-3 0  2585
2 62919  43.0004 285.3876 0001560 250.5101  23.1160 15.70830797    16

Suivez STARLINK-11457 en temps réel avec AllMySat

Download on the App Store